STARLINK-2733

decayed
NORAD ID: 48645 Int'l Des: 2021-044 Owner: SPXS Country: US Constellation: starlink
LEOCIRCULAR
Gruppe

Über STARLINK-2733

Beschreibung wird geladen...

Höhenverlauf

Altitude vs Time

uPlot chart will show altitude changes over time

Zweizeiliger Elementsatz

1 48645U 21044H 25088.16918712 .12146643 12622-4 33637-3 0 9995
2 48645 53.0188 193.9894 0007505 17.3246 52.4519 16.45010751213076
Epoch: 29. März 2025 • Age: 4101 hours

Aktueller Status

Position data unavailable
Startdatum 26. Mai 2021
Alter 4.3 years
Verglühungsdatum 29. März 2025
Typ internet

Technische Details

Klassifizierung Payload
Masse 260.00 kg
Trockenmasse 248.00 kg
Gesamtmasse 260.00 kg
Länge 0.20 m
Durchmesser 2.80 m
Spannweite 9.00 m
Form Box + pan
Hersteller SPXS
Bus-Typ Starlink
Phasenstatus Unknown Transfer Status
Besitzer/Staat SPXS/US

Große Konstellationen

Loading constellations...